{"data":{"norad_id":66269,"intl_designator":"2025-247E","name":"STARLINK-34910","alt_names":[],"object_type":"PAYLOAD","status":"ACTIVE","operator":null,"country":"US","launch_date":"2025-10-31","launch_site_code":"AFWTR","launch_vehicle":null,"mission":null,"orbit_class":"UNKNOWN","rcs_meters":null,"size_class":null,"mass_kg":null,"dimensions":null,"purposes":["comms"],"wikipedia_slug":null,"has_3d_model":false,"image_url":null,"decayed_at":null,"tle_current":{"epoch":"2026-09-20T12:05:53.321568Z","epoch_age_seconds":96368,"freshness":"FRESH","line1":"1 66269U 25247E   26263.50408937  .00009361  00000+0  28790-3 0  9991","line2":"2 66269  53.1622   2.0436 0001417  99.5574 260.5589 15.34392019 50925","mean_motion":15.34392019,"eccentricity":0.0001417,"inclination_deg":53.1622,"raan_deg":2.0436,"arg_perigee_deg":99.5574,"mean_anomaly_deg":260.5589,"bstar":0.0002879,"rev_number":5092,"period_min":93.84824622188,"perigee_km":461.7576111005,"apogee_km":463.69631194719,"semimajor_km":6840.8639615238,"source":"CELESTRAK","updated_at":"2026-09-21T09:00:35.867360Z"}}}